Regional Weather Roundup
Issued by NWS

Home | Current Version | Previous Version | Graphics & Text | Print | Product List | Glossary On
Versions: 1 2 3 4 5 6 7 8 9 10 11 12 13 14 15 16 17 18 19 20 21 22 23 24 25 26 27 28 29 30 31 32 33 34 35 36 37 38 39 40 41 42 43 44 45 46 47 48 49 50
000
ASUS43 KLOT 021910
RWRIL

ILLINOIS REGIONAL WEATHER ROUNDUP
NATIONAL WEATHER SERVICE CHICAGO/ROMEOVILLE IL
200 PM CDT TUE SEP 02 2014

NOTE: "FAIR" INDICATES FEW OR NO CLOUDS BELOW 12,000 FEET WITH NO
SIGNIFICANT WEATHER AND/OR OBSTRUCTIONS TO VISIBILITY.

* THESE STATIONS ARE NOT UNDER NWS QUALITY CONTROL. THEY ALSO MAY NOT
  REPORT WEATHER SUCH AS PRECIPITATION OR FOG.

ILZ001-002-007-009-015-016-024-022000-
NORTHWEST ILLINOIS

CITY           SKY/WX    TMP DP  RH WIND       PRES   REMARKS
MOLINE         MOSUNNY   81  62  52 W12       29.94S HX  82
STERLING*      SUNNY     81  63  54 NW9G17    29.94R HX  82
SAVANNA*       SUNNY     79  61  53 SW9       29.93R HX  80
$$

ILZ003-004-008-010-011-017-018-022000-
NORTH CENTRAL ILLINOIS

CITY           SKY/WX    TMP DP  RH WIND       PRES   REMARKS
ROCKFORD       MOSUNNY   79  57  46 W12G17    29.94R HX  80
FREEPORT*      SUNNY     78  62  58 SW13      29.95R HX  80
ROCHELLE*      SUNNY     78  58  50 SW8       29.94R
DE KALB*       SUNNY     76  58  52 W10G17    29.94R
PERU*          SUNNY     80  64  58 W5        29.94R HX  82
$$

ILZ005-006-012>014-019>023-022000-
NORTHEAST ILLINOIS

CITY           SKY/WX    TMP DP  RH WIND       PRES   REMARKS
CHICAGO-OHARE  MOSUNNY   81  56  42 NW8       29.90R HX  81
CHICAGO-MIDWAY MOSUNNY   83  57  41 NW10      29.90R HX  82
AURORA         MOSUNNY   79  61  53 W7        29.92R HX  80
LANSING*         N/A    N/A N/A N/A MISG        N/A
JOLIET*        SUNNY     80  57  44 NW7       29.92S HX  81
WAUKEGAN       PTSUNNY   78  59  51 VRB7      29.90R
DUPAGE AIRPORT SUNNY     81  58  45 W12G18    29.91R HX  81
KANKAKEE*      PTSUNNY   79  66  63 W6        29.93R HX  81
WHEELING       SUNNY     83  56  39 W9        29.92R HX  82
MORRIS*        SUNNY     82  60  48 W8        29.92R HX  82
ROMEOVILLE*    SUNNY     80  59  47 NW9       29.92R HX  81
NORTHERLY ISL    N/A     76  67  73 E5          N/A
$$

LMZ740>746-022000-
SOUTHERN LAKE MICHIGAN

STATION/POSITION SKY/WX   TEMP    WIND        PRES    VSBY  WAVE
                          AIR SEA DIR/SP/G                  HT/PER
                          (F)     (DEG/KT/KT) (MB)    (MI)  (FT/S)
SOUTHERN BUOY              72 73  200/  4/  6 1012.6R         0
WAUKEGAN HARBOR            79     270/  4/ 12   N/A
HARRISON CRIB              72      90/  6/  7   N/A
BURNHAM HARBOR             74      70/  8/ 10   N/A
CALUMET HARBOR             77      60/  4/  7 1011.2S
MICHIGAN CITY              75      CALM  /  2   N/A
MICHIGAN CITY 6N           73 75   50/  2/  2   N/A           1
ST. JOSEPH                 72 72  240/  4/  6   N/A           1/ 2
$$

ILZ025>027-034>036-040-047-049-050-058-095>099-022000-
WEST-CENTRAL ILLINOIS

CITY           SKY/WX    TMP DP  RH WIND       PRES   REMARKS
QUINCY         MOSUNNY   80  65  59 W6        29.98R HX  82
GALESBURG*     PTSUNNY   84  66  53 W7        29.96R HX  86
MACOMB*        PTSUNNY   80  64  58 W8        29.99R HX  82
JACKSONVILLE*  CLOUDY    82  70  68 SW9       29.98S HX  85
PITTSFIELD*    CLOUDY    81  65  57 W8        30.00S HX  83
$$

ILZ028>032-037-038-041>044-048-051>054-059>061-022000-
CENTRAL ILLINOIS

CITY           SKY/WX    TMP DP  RH WIND       PRES   REMARKS
PONTIAC        PTSUNNY   81  64  57 W3        29.93R HX  82
DECATUR        PTSUNNY   79  68  69 W8        29.98R HX  81
PEORIA         MOSUNNY   83  64  52 W8        29.95R HX  84
LACON*         MOSUNNY   80  62  54 W3        29.93R HX  81
LINCOLN*       CLOUDY    83  67  59 SW5       29.93R HX  85
SPRINGFIELD    CLOUDY    81  68  64 SW7       29.97R HX  84
TAYLORVILLE    CLOUDY    77  68  73 NW7       29.98S
$$

ILZ033-039-045-046-055>057-062-063-022000-
EAST-CENTRAL ILLINOIS

CITY           SKY/WX    TMP DP  RH WIND       PRES   REMARKS
CHAMPAIGN      PTSUNNY   78  69  73 SW8       29.97R HX  80
DANVILLE*      CLOUDY    77  69  78 SW8       29.93S
RANTOUL*       PTSUNNY   81  68  65 SW8       29.96R HX  83
MATTOON        CLOUDY    76  66  71 NW8       29.97R
PARIS*         CLOUDY    77  69  75 NW6       29.98R
$$

ILZ079-100>102-022000-
SOUTHWEST ILLINOIS

CITY           SKY/WX    TMP DP  RH WIND       PRES   REMARKS
BELLEVILLE     CLOUDY    81  73  77 NW7       29.99R HX  86
CAHOKIA*       CLOUDY    81  70  69 VRB6      29.99R HX  84
SPARTA*        CLOUDY    78  69  73 W9        30.01S HX  80
$$

ILZ064>066-069>071-074>076-080>082-084>086-088>090-092>094-022000-
SOUTH-CENTRAL ILLINOIS

CITY           SKY/WX    TMP DP  RH WIND       PRES   REMARKS
CARBONDALE     CLOUDY    82  68  62 NW7       29.99R HX  85
CAIRO*         CLOUDY    85  71  62 W3        30.00S HX  90
EFFINGHAM*     CLOUDY    78  68  71 W6        29.99R HX  80
MARION         CLOUDY    82  68  61 NW15      30.00R HX  85
MT. VERNON     CLOUDY    77  70  78 W5        30.00R
CENTRALIA*     CLOUDY    78  69  75 W8        30.00R HX  80
SALEM*         CLOUDY    78  73  82 W5        30.00R HX  81
METROPOLIS*    CLOUDY    85  70  60 W9        30.00R HX  89
$$

ILZ067-068-072-073-078-083-087-091-022000-
SOUTHEAST ILLINOIS

CITY           SKY/WX    TMP DP  RH WIND       PRES   REMARKS
LAWRENCEVILLE  CLOUDY    78  71  79 NW7       29.98R HX  80
FLORA*         MOSUNNY   77  70  79 W8        29.99R
FAIRFIELD*     PTSUNNY   79  75  89 NW3       29.99R HX  82
HARRISBURG*    CLOUDY    84  70  63 W14       30.00R HX  88
ROBINSON*      PTSUNNY   78  73  83 NW7       29.98R HX  80
CARMI*         PTSUNNY   84  74  70 W13G21    29.97R HX  91
$$

ABBREVIATIONS USED IN REMARKS
   TC - TEMPERATURE IN CELSIUS
  WCI - WIND CHILL INDEX
   HX - HEAT INDEX
  VSB - VISIBILITY
$$



USA.gov is the U.S. government's official web portal to all federal, state and local government web resources and services.